Year,Month,Day,Hour,Minute,Value (Times are PST for temperature in C)
2006,06,26,00,00,21.60
2006,06,26,00,01,21.60
2006,06,26,00,02,21.70
2006,06,26,00,03,21.70
2006,06,26,00,04,21.80
2006,06,26,00,05,21.80
2006,06,26,00,06,21.80
2006,06,26,00,07,21.90
2006,06,26,00,08,21.90
2006,06,26,00,09,21.90
2006,06,26,00,10,21.90
2006,06,26,00,11,21.90
2006,06,26,00,12,21.90
2006,06,26,00,13,21.90
2006,06,26,00,14,21.90
2006,06,26,00,15,21.90
2006,06,26,00,16,22.00
2006,06,26,00,17,22.00
2006,06,26,00,18,22.00
2006,06,26,00,19,22.00
2006,06,26,00,20,22.00
2006,06,26,00,21,22.00
2006,06,26,00,22,22.00
2006,06,26,00,23,22.10
2006,06,26,00,24,22.10
2006,06,26,00,25,22.20
2006,06,26,00,26,22.20
2006,06,26,00,27,22.10
2006,06,26,00,28,22.10
2006,06,26,00,29,22.00
2006,06,26,00,30,21.90
2006,06,26,00,31,21.90
2006,06,26,00,32,21.80
2006,06,26,00,33,21.70
2006,06,26,00,34,21.70
2006,06,26,00,35,21.60
2006,06,26,00,36,21.60
2006,06,26,00,37,21.60
2006,06,26,00,38,21.60
2006,06,26,00,39,21.60
2006,06,26,00,40,21.60
2006,06,26,00,41,21.60
2006,06,26,00,42,21.60
2006,06,26,00,43,21.60
2006,06,26,00,44,21.60
2006,06,26,00,45,21.60
2006,06,26,00,46,21.60
2006,06,26,00,47,21.50
2006,06,26,00,48,21.40
2006,06,26,00,49,21.40
2006,06,26,00,50,21.30
2006,06,26,00,51,21.30
2006,06,26,00,52,21.30
2006,06,26,00,53,21.20
2006,06,26,00,54,21.20
2006,06,26,00,55,21.20
2006,06,26,00,56,21.20
2006,06,26,00,57,21.10
2006,06,26,00,58,21.10
2006,06,26,00,59,21.00
2006,06,26,01,00,21.00
2006,06,26,01,01,20.90
2006,06,26,01,02,21.00
2006,06,26,01,03,21.10
2006,06,26,01,04,21.10
2006,06,26,01,05,21.10
2006,06,26,01,06,21.10
2006,06,26,01,07,21.00
2006,06,26,01,08,21.00
2006,06,26,01,09,20.90
2006,06,26,01,10,20.90
2006,06,26,01,11,20.80
2006,06,26,01,12,20.80
2006,06,26,01,13,20.80
2006,06,26,01,14,20.70
2006,06,26,01,15,20.70
2006,06,26,01,16,20.60
2006,06,26,01,17,20.60
2006,06,26,01,18,20.60
2006,06,26,01,19,20.50
2006,06,26,01,20,20.50
2006,06,26,01,21,20.50
2006,06,26,01,22,20.60
2006,06,26,01,23,20.70
2006,06,26,01,24,20.70
2006,06,26,01,25,20.80
2006,06,26,01,26,20.80
2006,06,26,01,27,20.90
2006,06,26,01,28,21.00
2006,06,26,01,29,21.00
2006,06,26,01,30,21.10
2006,06,26,01,31,21.10
2006,06,26,01,32,21.10
2006,06,26,01,33,21.20
2006,06,26,01,34,21.30
2006,06,26,01,35,21.40
2006,06,26,01,36,21.40
2006,06,26,01,37,21.40
2006,06,26,01,38,21.40
2006,06,26,01,39,21.40
2006,06,26,01,40,21.40
2006,06,26,01,41,21.40
2006,06,26,01,42,21.40
2006,06,26,01,43,21.40
2006,06,26,01,44,21.40
2006,06,26,01,45,21.30
2006,06,26,01,46,21.30
2006,06,26,01,47,21.30
2006,06,26,01,48,21.30
2006,06,26,01,49,21.30
2006,06,26,01,50,21.30
2006,06,26,01,51,21.30
2006,06,26,01,52,21.30
2006,06,26,01,53,21.30
2006,06,26,01,54,21.30
2006,06,26,01,55,21.30
2006,06,26,01,56,21.30
2006,06,26,01,57,21.30
2006,06,26,01,58,21.30
2006,06,26,01,59,21.30
2006,06,26,02,00,21.30
2006,06,26,02,01,21.40
2006,06,26,02,02,21.40
2006,06,26,02,03,21.40
2006,06,26,02,04,21.50
2006,06,26,02,05,21.60
2006,06,26,02,06,21.60
2006,06,26,02,07,21.60
2006,06,26,02,08,21.60
2006,06,26,02,09,21.60
2006,06,26,02,10,21.60
2006,06,26,02,11,21.60
2006,06,26,02,12,21.70
2006,06,26,02,13,21.70
2006,06,26,02,14,21.80
2006,06,26,02,15,21.80
2006,06,26,02,16,21.90
2006,06,26,02,17,21.90
2006,06,26,02,18,21.90
2006,06,26,02,19,21.90
2006,06,26,02,20,21.90
2006,06,26,02,21,21.80
2006,06,26,02,22,21.70
2006,06,26,02,23,21.70
2006,06,26,02,24,21.70
2006,06,26,02,25,21.70
2006,06,26,02,26,21.70
2006,06,26,02,27,21.70
2006,06,26,02,28,21.80
2006,06,26,02,29,21.80
2006,06,26,02,30,21.90
2006,06,26,02,31,22.00
2006,06,26,02,32,22.00
2006,06,26,02,33,22.00
2006,06,26,02,34,22.00
2006,06,26,02,35,22.00
2006,06,26,02,36,21.90
2006,06,26,02,37,21.90
2006,06,26,02,38,21.80
2006,06,26,02,39,21.80
2006,06,26,02,40,21.80
2006,06,26,02,41,21.70
2006,06,26,02,42,21.70
2006,06,26,02,43,21.70
2006,06,26,02,44,21.70
2006,06,26,02,45,21.70
2006,06,26,02,46,21.70
2006,06,26,02,47,21.70
2006,06,26,02,48,21.70
2006,06,26,02,49,21.70
2006,06,26,02,50,21.70
2006,06,26,02,51,21.70
2006,06,26,02,52,21.70
2006,06,26,02,53,21.70
2006,06,26,02,54,21.70
2006,06,26,02,55,21.70
2006,06,26,02,56,21.60
2006,06,26,02,57,21.70
2006,06,26,02,58,21.60
2006,06,26,02,59,21.60
2006,06,26,03,00,21.60
2006,06,26,03,01,21.60
2006,06,26,03,02,21.60
2006,06,26,03,03,21.70
2006,06,26,03,04,21.70
2006,06,26,03,05,21.70
2006,06,26,03,06,21.80
2006,06,26,03,07,21.80
2006,06,26,03,08,21.80
2006,06,26,03,09,21.80
2006,06,26,03,10,21.80
2006,06,26,03,11,21.90
2006,06,26,03,12,21.90
2006,06,26,03,13,21.90
2006,06,26,03,14,21.90
2006,06,26,03,15,21.90
2006,06,26,03,16,21.90
2006,06,26,03,17,21.90
2006,06,26,03,18,21.90
2006,06,26,03,19,21.90
2006,06,26,03,20,21.80
2006,06,26,03,21,21.70
2006,06,26,03,22,21.70
2006,06,26,03,23,21.60
2006,06,26,03,24,21.60
2006,06,26,03,25,21.60
2006,06,26,03,26,21.60
2006,06,26,03,27,21.50
2006,06,26,03,28,21.40
2006,06,26,03,29,21.40
2006,06,26,03,30,21.40
2006,06,26,03,31,21.40
2006,06,26,03,32,21.40
2006,06,26,03,33,21.30
2006,06,26,03,34,21.30
2006,06,26,03,35,21.30
2006,06,26,03,36,21.30
2006,06,26,03,37,21.20
2006,06,26,03,38,21.10
2006,06,26,03,39,21.00
2006,06,26,03,40,20.90
2006,06,26,03,41,20.90
2006,06,26,03,42,20.80
2006,06,26,03,43,20.80
2006,06,26,03,44,20.80
2006,06,26,03,45,20.90
2006,06,26,03,46,20.90
2006,06,26,03,47,20.90
2006,06,26,03,48,20.80
2006,06,26,03,49,20.80
2006,06,26,03,50,20.80
2006,06,26,03,51,20.70
2006,06,26,03,52,20.70
2006,06,26,03,53,20.70
2006,06,26,03,54,20.70
2006,06,26,03,55,20.60
2006,06,26,03,56,20.50
2006,06,26,03,57,20.50
2006,06,26,03,58,20.40
2006,06,26,03,59,20.40
2006,06,26,04,00,20.30
2006,06,26,04,01,20.30
2006,06,26,04,02,20.20
2006,06,26,04,03,20.20
2006,06,26,04,04,20.20
2006,06,26,04,05,20.10
2006,06,26,04,06,20.00
2006,06,26,04,07,19.90
2006,06,26,04,08,19.90
2006,06,26,04,09,19.80
2006,06,26,04,10,19.80
2006,06,26,04,11,19.70
2006,06,26,04,12,19.70
2006,06,26,04,13,19.70
2006,06,26,04,14,19.70
2006,06,26,04,15,19.70
2006,06,26,04,16,19.70
2006,06,26,04,17,19.70
2006,06,26,04,18,19.70
2006,06,26,04,19,19.70
2006,06,26,04,20,19.70
2006,06,26,04,21,19.60
2006,06,26,04,22,19.60
2006,06,26,04,23,19.60
2006,06,26,04,24,19.60
2006,06,26,04,25,19.50
2006,06,26,04,26,19.50
2006,06,26,04,27,19.50
2006,06,26,04,28,19.50
2006,06,26,04,29,19.40
2006,06,26,04,30,19.40
2006,06,26,04,31,19.40
2006,06,26,04,32,19.50
2006,06,26,04,33,19.50
2006,06,26,04,34,19.40
2006,06,26,04,35,19.40
2006,06,26,04,36,19.40
2006,06,26,04,37,19.30
2006,06,26,04,38,19.30
2006,06,26,04,39,19.20
2006,06,26,04,40,19.10
2006,06,26,04,41,19.10
2006,06,26,04,42,19.10
2006,06,26,04,43,19.10
2006,06,26,04,44,19.10
2006,06,26,04,45,19.10
2006,06,26,04,46,19.10
2006,06,26,04,47,19.10
2006,06,26,04,48,19.10
2006,06,26,04,49,19.10
2006,06,26,04,50,19.10
2006,06,26,04,51,19.00
2006,06,26,04,52,18.90
2006,06,26,04,53,18.90
2006,06,26,04,54,18.90
2006,06,26,04,55,18.90
2006,06,26,04,56,18.80
2006,06,26,04,57,18.80
2006,06,26,04,58,18.80
2006,06,26,04,59,18.70
2006,06,26,05,00,18.70
2006,06,26,05,01,18.60
2006,06,26,05,02,18.60
2006,06,26,05,03,18.60
2006,06,26,05,04,18.50
2006,06,26,05,05,18.50
2006,06,26,05,06,18.50
2006,06,26,05,07,18.50
2006,06,26,05,08,18.40
2006,06,26,05,09,18.40
2006,06,26,05,10,18.30
2006,06,26,05,11,18.20
2006,06,26,05,12,18.20
2006,06,26,05,13,18.20
2006,06,26,05,14,18.10
2006,06,26,05,15,18.10
2006,06,26,05,16,18.00
2006,06,26,05,17,17.90
2006,06,26,05,18,17.90
2006,06,26,05,19,17.90
2006,06,26,05,20,17.90
2006,06,26,05,21,17.90
2006,06,26,05,22,17.90
2006,06,26,05,23,17.80
2006,06,26,05,24,17.80
2006,06,26,05,25,17.70
2006,06,26,05,26,17.70
2006,06,26,05,27,17.70
2006,06,26,05,28,17.60
2006,06,26,05,29,17.60
2006,06,26,05,30,17.60
2006,06,26,05,31,17.60
2006,06,26,05,32,17.60
2006,06,26,05,33,17.60
2006,06,26,05,34,17.60
2006,06,26,05,35,17.60
2006,06,26,05,36,17.60
2006,06,26,05,37,17.60
2006,06,26,05,38,17.60
2006,06,26,05,39,17.60
2006,06,26,05,40,17.60
2006,06,26,05,41,17.60
2006,06,26,05,42,17.60
2006,06,26,05,43,17.60
2006,06,26,05,44,17.60
2006,06,26,05,45,17.60
2006,06,26,05,46,17.60
2006,06,26,05,47,17.60
2006,06,26,05,48,17.60
2006,06,26,05,49,17.60
2006,06,26,05,50,17.60
2006,06,26,05,51,17.60
2006,06,26,05,52,17.60
2006,06,26,05,53,17.60
2006,06,26,05,54,17.60
2006,06,26,05,55,17.60
2006,06,26,05,56,17.60
2006,06,26,05,57,17.60
2006,06,26,05,58,17.60
2006,06,26,05,59,17.60
2006,06,26,06,00,17.60
2006,06,26,06,01,17.60
2006,06,26,06,02,17.60
2006,06,26,06,03,17.60
2006,06,26,06,04,17.60
2006,06,26,06,05,17.60
2006,06,26,06,06,17.60
2006,06,26,06,07,17.70
2006,06,26,06,08,17.70
2006,06,26,06,09,17.70
2006,06,26,06,10,17.80
2006,06,26,06,11,17.90
2006,06,26,06,12,17.90
2006,06,26,06,13,18.00
2006,06,26,06,14,18.10
2006,06,26,06,15,18.20
2006,06,26,06,16,18.20
2006,06,26,06,17,18.30
2006,06,26,06,18,18.50
2006,06,26,06,19,18.60
2006,06,26,06,20,18.70
2006,06,26,06,21,18.80
2006,06,26,06,22,18.90
2006,06,26,06,23,18.90
2006,06,26,06,24,18.90
2006,06,26,06,25,18.90
2006,06,26,06,26,18.80
2006,06,26,06,27,18.80
2006,06,26,06,28,18.80
2006,06,26,06,29,18.70
2006,06,26,06,30,18.70
2006,06,26,06,31,18.60
2006,06,26,06,32,18.60
2006,06,26,06,33,18.50
2006,06,26,06,34,18.50
2006,06,26,06,35,18.50
2006,06,26,06,36,18.40
2006,06,26,06,37,18.40
2006,06,26,06,38,18.50
2006,06,26,06,39,18.50
2006,06,26,06,40,18.60
2006,06,26,06,41,18.60
2006,06,26,06,42,18.70
2006,06,26,06,43,18.90
2006,06,26,06,44,18.90
2006,06,26,06,45,19.10
2006,06,26,06,46,19.10
2006,06,26,06,47,19.20
2006,06,26,06,48,19.30
2006,06,26,06,49,19.30
2006,06,26,06,50,19.40
2006,06,26,06,51,19.50
2006,06,26,06,52,19.60
2006,06,26,06,53,19.70
2006,06,26,06,54,19.80
2006,06,26,06,55,19.90
2006,06,26,06,56,20.00
2006,06,26,06,57,20.20
2006,06,26,06,58,20.20
2006,06,26,06,59,20.40
2006,06,26,07,00,20.50
2006,06,26,07,01,20.60
2006,06,26,07,02,20.70
2006,06,26,07,03,20.80
2006,06,26,07,04,20.80
2006,06,26,07,05,20.90
2006,06,26,07,06,21.00
2006,06,26,07,07,21.10
2006,06,26,07,08,21.20
2006,06,26,07,09,21.30
2006,06,26,07,10,21.30
2006,06,26,07,11,21.30
2006,06,26,07,12,21.40
2006,06,26,07,13,21.50
2006,06,26,07,14,21.60
2006,06,26,07,15,21.60
2006,06,26,07,16,21.60
2006,06,26,07,17,21.60
2006,06,26,07,18,21.60
2006,06,26,07,19,21.70
2006,06,26,07,20,21.70
2006,06,26,07,21,21.70
2006,06,26,07,22,21.70
2006,06,26,07,23,21.70
2006,06,26,07,24,21.70
2006,06,26,07,25,21.70
2006,06,26,07,26,21.70
2006,06,26,07,27,21.70
2006,06,26,07,28,21.70
2006,06,26,07,29,21.70
2006,06,26,07,30,21.60
2006,06,26,07,31,21.60
2006,06,26,07,32,21.60
2006,06,26,07,33,21.60
2006,06,26,07,34,21.40
2006,06,26,07,35,21.50
2006,06,26,07,36,21.60
2006,06,26,07,37,21.60
2006,06,26,07,38,21.60
2006,06,26,07,39,21.80
2006,06,26,07,40,21.90
2006,06,26,07,41,22.00
2006,06,26,07,42,22.20
2006,06,26,07,43,22.30
2006,06,26,07,44,22.30
2006,06,26,07,45,22.30
2006,06,26,07,46,22.30
2006,06,26,07,47,22.30
2006,06,26,07,48,22.30
2006,06,26,07,49,22.30
2006,06,26,07,50,22.20
2006,06,26,07,51,22.00
2006,06,26,07,52,22.00
2006,06,26,07,53,21.90
2006,06,26,07,54,21.80
2006,06,26,07,55,21.70
2006,06,26,07,56,21.70
2006,06,26,07,57,21.60
2006,06,26,07,58,21.50
2006,06,26,07,59,21.40
2006,06,26,08,00,21.30
2006,06,26,08,01,21.20
2006,06,26,08,02,21.10
2006,06,26,08,03,21.10
2006,06,26,08,04,21.00
2006,06,26,08,05,21.10
2006,06,26,08,06,21.10
2006,06,26,08,07,21.30
2006,06,26,08,08,21.30
2006,06,26,08,09,21.30
2006,06,26,08,10,21.30
2006,06,26,08,11,21.30
2006,06,26,08,12,21.20
2006,06,26,08,13,21.10
2006,06,26,08,14,21.00
2006,06,26,08,15,21.00
2006,06,26,08,16,21.00
2006,06,26,08,17,21.00
2006,06,26,08,18,21.10
2006,06,26,08,19,21.10
2006,06,26,08,20,21.00
2006,06,26,08,21,20.90
2006,06,26,08,22,20.80
2006,06,26,08,23,20.80
2006,06,26,08,24,20.70
2006,06,26,08,25,20.70
2006,06,26,08,26,20.70
2006,06,26,08,27,20.70
2006,06,26,08,28,20.80
2006,06,26,08,29,20.90
2006,06,26,08,30,21.00
2006,06,26,08,31,20.90
2006,06,26,08,32,20.90
2006,06,26,08,33,21.00
2006,06,26,08,34,21.00
2006,06,26,08,35,21.00
2006,06,26,08,36,20.90
2006,06,26,08,37,20.80
2006,06,26,08,38,20.70
2006,06,26,08,39,20.70
2006,06,26,08,40,20.70
2006,06,26,08,41,20.80
2006,06,26,08,42,20.70
2006,06,26,08,43,20.70
2006,06,26,08,44,20.70
2006,06,26,08,45,20.70
2006,06,26,08,46,20.60
2006,06,26,08,47,20.60
2006,06,26,08,48,20.60
2006,06,26,08,49,20.70
2006,06,26,08,50,20.80
2006,06,26,08,51,20.90
2006,06,26,08,52,20.90
2006,06,26,08,53,20.80
2006,06,26,08,54,20.80
2006,06,26,08,55,20.60
2006,06,26,08,56,20.60
2006,06,26,08,57,20.60
2006,06,26,08,58,20.50
2006,06,26,08,59,20.50
2006,06,26,09,00,20.40
2006,06,26,09,01,20.40
2006,06,26,09,02,20.50
2006,06,26,09,03,20.50
2006,06,26,09,04,20.50
2006,06,26,09,05,20.50
2006,06,26,09,06,20.60
2006,06,26,09,07,20.70
2006,06,26,09,08,20.70
2006,06,26,09,09,20.80
2006,06,26,09,10,20.70
2006,06,26,09,11,20.50
2006,06,26,09,12,20.50
2006,06,26,09,13,20.60
2006,06,26,09,14,20.70
2006,06,26,09,15,20.70
2006,06,26,09,16,20.80
2006,06,26,09,17,20.80
2006,06,26,09,18,20.90
2006,06,26,09,19,20.90
2006,06,26,09,20,20.80
2006,06,26,09,21,20.80
2006,06,26,09,22,20.70
2006,06,26,09,23,20.70
2006,06,26,09,24,20.80
2006,06,26,09,25,20.80
2006,06,26,09,26,20.80
2006,06,26,09,27,20.80
2006,06,26,09,28,20.70
2006,06,26,09,29,20.80
2006,06,26,09,30,20.80
2006,06,26,09,31,20.90
2006,06,26,09,32,20.90
2006,06,26,09,33,21.00
2006,06,26,09,34,21.00
2006,06,26,09,35,20.90
2006,06,26,09,36,20.70
2006,06,26,09,37,20.50
2006,06,26,09,38,20.50
2006,06,26,09,39,20.50
2006,06,26,09,40,20.50
2006,06,26,09,41,20.40
2006,06,26,09,42,20.50
2006,06,26,09,43,20.50
2006,06,26,09,44,20.70
2006,06,26,09,45,20.70
2006,06,26,09,46,20.80
2006,06,26,09,47,21.00
2006,06,26,09,48,21.10
2006,06,26,09,49,21.20
2006,06,26,09,50,21.20
2006,06,26,09,51,21.20
2006,06,26,09,52,21.10
2006,06,26,09,53,21.00
2006,06,26,09,54,20.90
2006,06,26,09,55,20.70
2006,06,26,09,56,20.70
2006,06,26,09,57,20.80
2006,06,26,09,58,20.90
2006,06,26,09,59,20.90
2006,06,26,10,00,21.00
2006,06,26,10,01,21.10
2006,06,26,10,02,21.10
2006,06,26,10,03,21.10
2006,06,26,10,04,21.10
2006,06,26,10,05,21.30
2006,06,26,10,06,21.30
2006,06,26,10,07,21.40
2006,06,26,10,08,21.40
2006,06,26,10,09,21.40
2006,06,26,10,10,21.40
2006,06,26,10,11,21.30
2006,06,26,10,12,21.20
2006,06,26,10,13,21.10
2006,06,26,10,14,21.00
2006,06,26,10,15,21.10
2006,06,26,10,16,21.20
2006,06,26,10,17,21.30
2006,06,26,10,18,21.30
2006,06,26,10,19,21.50
2006,06,26,10,20,21.60
2006,06,26,10,21,21.60
2006,06,26,10,22,21.80
2006,06,26,10,23,21.80
2006,06,26,10,24,21.80
2006,06,26,10,25,21.80
2006,06,26,10,26,21.70
2006,06,26,10,27,21.60
2006,06,26,10,28,21.60
2006,06,26,10,29,21.60
2006,06,26,10,30,21.60
2006,06,26,10,31,21.60
2006,06,26,10,32,21.70
2006,06,26,10,33,21.80
2006,06,26,10,34,21.90
2006,06,26,10,35,22.00
2006,06,26,10,36,22.00
2006,06,26,10,37,22.00
2006,06,26,10,38,22.10
2006,06,26,10,39,22.20
2006,06,26,10,40,22.30
2006,06,26,10,41,22.30
2006,06,26,10,42,22.20
2006,06,26,10,43,22.20
2006,06,26,10,44,22.10
2006,06,26,10,45,22.00
2006,06,26,10,46,22.10
2006,06,26,10,47,22.10
2006,06,26,10,48,22.10
2006,06,26,10,49,22.20
2006,06,26,10,50,22.20
2006,06,26,10,51,22.20
2006,06,26,10,52,22.10
2006,06,26,10,53,22.10
2006,06,26,10,54,22.10
2006,06,26,10,55,22.10
2006,06,26,10,56,22.00
2006,06,26,10,57,21.80
2006,06,26,10,58,21.80
2006,06,26,10,59,21.90
2006,06,26,11,00,21.90
2006,06,26,11,01,22.00
2006,06,26,11,02,22.20
2006,06,26,11,03,22.30
2006,06,26,11,04,22.30
2006,06,26,11,05,22.20
2006,06,26,11,06,22.20
2006,06,26,11,07,22.10
2006,06,26,11,08,22.10
2006,06,26,11,09,22.10
2006,06,26,11,10,22.10
2006,06,26,11,11,22.10
2006,06,26,11,12,22.10
2006,06,26,11,13,22.10
2006,06,26,11,14,22.20
2006,06,26,11,15,22.10
2006,06,26,11,16,22.10
2006,06,26,11,17,22.10
2006,06,26,11,18,22.20
2006,06,26,11,19,22.30
2006,06,26,11,20,22.30
2006,06,26,11,21,22.30
2006,06,26,11,22,22.40
2006,06,26,11,23,22.40
2006,06,26,11,24,22.40
2006,06,26,11,25,22.30
2006,06,26,11,26,22.30
2006,06,26,11,27,22.20
2006,06,26,11,28,22.10
2006,06,26,11,29,22.00
2006,06,26,11,30,21.90
2006,06,26,11,31,21.90
2006,06,26,11,32,21.90
2006,06,26,11,33,21.90
2006,06,26,11,34,21.90
2006,06,26,11,35,22.00
2006,06,26,11,36,22.00
2006,06,26,11,37,22.00
2006,06,26,11,38,22.00
2006,06,26,11,39,22.10
2006,06,26,11,40,22.30
2006,06,26,11,41,22.20
2006,06,26,11,42,22.00
2006,06,26,11,43,21.90
2006,06,26,11,44,21.80
2006,06,26,11,45,21.80
2006,06,26,11,46,21.90
2006,06,26,11,47,22.00
2006,06,26,11,48,22.20
2006,06,26,11,49,22.20
2006,06,26,11,50,22.30
2006,06,26,11,51,22.30
2006,06,26,11,52,22.30
2006,06,26,11,53,22.50
2006,06,26,11,54,22.60
2006,06,26,11,55,22.60
2006,06,26,11,56,22.60
2006,06,26,11,57,22.70
2006,06,26,11,58,22.70
2006,06,26,11,59,22.90
2006,06,26,12,00,23.00
2006,06,26,12,01,23.10
2006,06,26,12,02,23.20
2006,06,26,12,03,23.20
2006,06,26,12,04,23.10
2006,06,26,12,05,23.20
2006,06,26,12,06,23.20
2006,06,26,12,07,23.20
2006,06,26,12,08,23.10
2006,06,26,12,09,23.20
2006,06,26,12,10,23.20
2006,06,26,12,11,23.10
2006,06,26,12,12,23.10
2006,06,26,12,13,23.00
2006,06,26,12,14,22.90
2006,06,26,12,15,23.00
2006,06,26,12,16,23.10
2006,06,26,12,17,23.30
2006,06,26,12,18,23.30
2006,06,26,12,19,23.30
2006,06,26,12,20,23.40
2006,06,26,12,21,23.40
2006,06,26,12,22,23.40
2006,06,26,12,23,23.40
2006,06,26,12,24,23.40
2006,06,26,12,25,23.30
2006,06,26,12,26,23.20
2006,06,26,12,27,23.10
2006,06,26,12,28,23.20
2006,06,26,12,29,23.00
2006,06,26,12,30,22.90
2006,06,26,12,31,22.90
2006,06,26,12,32,22.90
2006,06,26,12,33,22.90
2006,06,26,12,34,22.90
2006,06,26,12,35,23.00
2006,06,26,12,36,23.10
2006,06,26,12,37,23.20
2006,06,26,12,38,23.30
2006,06,26,12,39,23.30
2006,06,26,12,40,23.40
2006,06,26,12,41,23.40
2006,06,26,12,42,23.40
2006,06,26,12,43,23.40
2006,06,26,12,44,23.40
2006,06,26,12,45,23.50
2006,06,26,12,46,23.60
2006,06,26,12,47,23.70
2006,06,26,12,48,23.70
2006,06,26,12,49,23.60
2006,06,26,12,50,23.60
2006,06,26,12,51,23.60
2006,06,26,12,52,23.60
2006,06,26,12,53,23.50
2006,06,26,12,54,23.30
2006,06,26,12,55,23.30
2006,06,26,12,56,23.10
2006,06,26,12,57,23.10
2006,06,26,12,58,22.90
2006,06,26,12,59,22.90
2006,06,26,13,00,22.90
2006,06,26,13,01,23.00
2006,06,26,13,02,23.10
2006,06,26,13,03,23.10
2006,06,26,13,04,23.20
2006,06,26,13,05,23.30
2006,06,26,13,06,23.40
2006,06,26,13,07,23.60
2006,06,26,13,08,23.70
2006,06,26,13,09,23.70
2006,06,26,13,10,23.80
2006,06,26,13,11,23.90
2006,06,26,13,12,23.90
2006,06,26,13,13,24.10
2006,06,26,13,14,24.10
2006,06,26,13,15,24.10
2006,06,26,13,16,24.10
2006,06,26,13,17,24.00
2006,06,26,13,18,23.90
2006,06,26,13,19,23.90
2006,06,26,13,20,23.90
2006,06,26,13,21,24.00
2006,06,26,13,22,24.10
2006,06,26,13,23,24.00
2006,06,26,13,24,23.90
2006,06,26,13,25,23.90
2006,06,26,13,26,23.80
2006,06,26,13,27,23.90
2006,06,26,13,28,24.10
2006,06,26,13,29,24.20
2006,06,26,13,30,24.30
2006,06,26,13,31,24.40
2006,06,26,13,32,24.40
2006,06,26,13,33,24.40
2006,06,26,13,34,24.40
2006,06,26,13,35,24.40
2006,06,26,13,36,24.40
2006,06,26,13,37,24.50
2006,06,26,13,38,24.50
2006,06,26,13,39,24.40
2006,06,26,13,40,24.50
2006,06,26,13,41,24.50
2006,06,26,13,42,24.50
2006,06,26,13,43,24.40
2006,06,26,13,44,24.30
2006,06,26,13,45,24.30
2006,06,26,13,46,24.30
2006,06,26,13,47,24.30
2006,06,26,13,48,24.20
2006,06,26,13,49,24.30
2006,06,26,13,50,24.40
2006,06,26,13,51,24.50
2006,06,26,13,52,24.50
2006,06,26,13,53,24.50
2006,06,26,13,54,24.50
2006,06,26,13,55,24.50
2006,06,26,13,56,24.50
2006,06,26,13,57,24.50
2006,06,26,13,58,24.50
2006,06,26,13,59,24.50
2006,06,26,14,00,24.60
2006,06,26,14,01,24.60
2006,06,26,14,02,24.60
2006,06,26,14,03,24.60
2006,06,26,14,04,24.60
2006,06,26,14,05,24.50
2006,06,26,14,06,24.50
2006,06,26,14,07,24.50
2006,06,26,14,08,24.50
2006,06,26,14,09,24.50
2006,06,26,14,10,24.50
2006,06,26,14,11,24.50
2006,06,26,14,12,24.50
2006,06,26,14,13,24.40
2006,06,26,14,14,24.30
2006,06,26,14,15,24.10
2006,06,26,14,16,24.20
2006,06,26,14,17,24.30
2006,06,26,14,18,24.40
2006,06,26,14,19,24.50
2006,06,26,14,20,24.50
2006,06,26,14,21,24.50
2006,06,26,14,22,24.50
2006,06,26,14,23,24.50
2006,06,26,14,24,24.50
2006,06,26,14,25,24.60
2006,06,26,14,26,24.50
2006,06,26,14,27,24.50
2006,06,26,14,28,24.50
2006,06,26,14,29,24.70
2006,06,26,14,30,24.70
2006,06,26,14,31,24.70
2006,06,26,14,32,24.70
2006,06,26,14,33,24.70
2006,06,26,14,34,24.60
2006,06,26,14,35,24.60
2006,06,26,14,36,24.60
2006,06,26,14,37,24.70
2006,06,26,14,38,24.80
2006,06,26,14,39,24.90
2006,06,26,14,40,25.00
2006,06,26,14,41,25.00
2006,06,26,14,42,25.00
2006,06,26,14,43,25.00
2006,06,26,14,44,24.90
2006,06,26,14,45,25.00
2006,06,26,14,46,25.00
2006,06,26,14,47,25.00
2006,06,26,14,48,25.10
2006,06,26,14,49,25.20
2006,06,26,14,50,25.20
2006,06,26,14,51,25.20
2006,06,26,14,52,25.20
2006,06,26,14,53,25.10
2006,06,26,14,54,25.00
2006,06,26,14,55,25.00
2006,06,26,14,56,25.10
2006,06,26,14,57,25.20
2006,06,26,14,58,25.20
2006,06,26,14,59,25.10
2006,06,26,15,00,25.10
2006,06,26,15,01,25.00
2006,06,26,15,02,25.00
2006,06,26,15,03,25.10
2006,06,26,15,04,25.10
2006,06,26,15,05,25.20
2006,06,26,15,06,25.40
2006,06,26,15,07,25.40
2006,06,26,15,08,25.50
2006,06,26,15,09,25.50
2006,06,26,15,10,25.60
2006,06,26,15,11,25.50
2006,06,26,15,12,25.50
2006,06,26,15,13,25.60
2006,06,26,15,14,25.60
2006,06,26,15,15,25.70
2006,06,26,15,16,25.80
2006,06,26,15,17,25.90
2006,06,26,15,18,25.90
2006,06,26,15,19,26.00
2006,06,26,15,20,26.00
2006,06,26,15,21,26.10
2006,06,26,15,22,26.10
2006,06,26,15,23,26.10
2006,06,26,15,24,26.10
2006,06,26,15,25,26.10
2006,06,26,15,26,26.20
2006,06,26,15,27,26.20
2006,06,26,15,28,26.30
2006,06,26,15,29,26.40
2006,06,26,15,30,26.40
2006,06,26,15,31,26.40
2006,06,26,15,32,26.40
2006,06,26,15,33,26.60
2006,06,26,15,34,26.60
2006,06,26,15,35,26.60
2006,06,26,15,36,26.60
2006,06,26,15,37,26.60
2006,06,26,15,38,26.60
2006,06,26,15,39,26.50
2006,06,26,15,40,26.40
2006,06,26,15,41,26.20
2006,06,26,15,42,26.10
2006,06,26,15,43,26.00
2006,06,26,15,44,26.10
2006,06,26,15,45,26.10
2006,06,26,15,46,26.20
2006,06,26,15,47,26.20
2006,06,26,15,48,26.20
2006,06,26,15,49,26.20
2006,06,26,15,50,26.20
2006,06,26,15,51,26.20
2006,06,26,15,52,26.30
2006,06,26,15,53,26.40
2006,06,26,15,54,26.40
2006,06,26,15,55,26.50
2006,06,26,15,56,26.60
2006,06,26,15,57,26.60
2006,06,26,15,58,26.60
2006,06,26,15,59,26.60
2006,06,26,16,00,26.60
2006,06,26,16,01,26.60
2006,06,26,16,02,26.60
2006,06,26,16,03,26.80
2006,06,26,16,04,26.80
2006,06,26,16,05,26.80
2006,06,26,16,06,27.10
2006,06,26,16,07,27.10
2006,06,26,16,08,27.10
2006,06,26,16,09,27.20
2006,06,26,16,10,27.30
2006,06,26,16,11,27.30
2006,06,26,16,12,27.40
2006,06,26,16,13,27.40
2006,06,26,16,14,27.40
2006,06,26,16,15,27.60
2006,06,26,16,16,27.60
2006,06,26,16,17,27.60
2006,06,26,16,18,27.70
2006,06,26,16,19,27.60
2006,06,26,16,20,27.70
2006,06,26,16,21,27.70
2006,06,26,16,22,27.80
2006,06,26,16,23,27.80
2006,06,26,16,24,27.90
2006,06,26,16,25,28.00
2006,06,26,16,26,28.00
2006,06,26,16,27,28.00
2006,06,26,16,28,28.00
2006,06,26,16,29,28.00
2006,06,26,16,30,28.10
2006,06,26,16,31,28.10
2006,06,26,16,32,28.10
2006,06,26,16,33,28.10
2006,06,26,16,34,28.00
2006,06,26,16,35,28.10
2006,06,26,16,36,28.20
2006,06,26,16,37,28.20
2006,06,26,16,38,28.20
2006,06,26,16,39,28.20
2006,06,26,16,40,28.20
2006,06,26,16,41,28.30
2006,06,26,16,42,28.40
2006,06,26,16,43,28.50
2006,06,26,16,44,28.50
2006,06,26,16,45,28.60
2006,06,26,16,46,28.60
2006,06,26,16,47,28.60
2006,06,26,16,48,28.60
2006,06,26,16,49,28.60
2006,06,26,16,50,28.70
2006,06,26,16,51,28.70
2006,06,26,16,52,28.70
2006,06,26,16,53,28.70
2006,06,26,16,54,28.80
2006,06,26,16,55,28.80
2006,06,26,16,56,28.80
2006,06,26,16,57,28.80
2006,06,26,16,58,28.80
2006,06,26,16,59,28.80
2006,06,26,17,00,28.80
2006,06,26,17,01,28.80
2006,06,26,17,02,28.80
2006,06,26,17,03,28.90
2006,06,26,17,04,28.90
2006,06,26,17,05,28.90
2006,06,26,17,06,28.90
2006,06,26,17,07,28.90
2006,06,26,17,08,29.10
2006,06,26,17,09,29.10
2006,06,26,17,10,29.10
2006,06,26,17,11,29.10
2006,06,26,17,12,29.10
2006,06,26,17,13,29.10
2006,06,26,17,14,29.10
2006,06,26,17,15,29.10
2006,06,26,17,16,29.20
2006,06,26,17,17,29.20
2006,06,26,17,18,29.20
2006,06,26,17,19,29.20